Wakefield, VA

10:20 AM EDT on October 15, 2019 (GMT -0400)
Wakefield Municipal

Weather History for KAKQ - September, 2019

Change the Weather History Date:

Sunday, September 15, 2019

  Actual Average (KJGG) Record (KJGG)
Temperature  
Mean Temperature 78 °F -  
Max Temperature 87 °F 81 °F 91 °F (2008)
Min Temperature 68 °F 60 °F 43 °F (1985)
Cooling Degree Days 12    
Growing Degree Days 28 (Base 50)    
Moisture  
Dew Point 69 °F    
Average Humidity 84    
Maximum Humidity 96    
Minimum Humidity 57    
Precipitation  
Precipitation 0.00 in - - ()
Sea Level Pressure  
Sea Level Pressure 30.14 in    
Wind  
Wind Speed 0 mph (East)    
Max Wind Speed 5 mph    
Max Gust Speed -    
Visibility 7 miles    
Events      
Averages and records for this station are not official NWS values.
T = Trace of Precipitation, MM = Missing Value Source: NWS Daily Summary

Daily Weather History Graph

Daily Weather History Graph

Search for Another Location

Airport or City:

Astronomy

Sep. 15, 2019 Rise Set
Actual Time 6:49 AM EDT 7:15 PM EDT
Civil Twilight 6:23 AM EDT 7:41 PM EDT
Nautical Twilight 5:53 AM EDT 8:12 PM EDT
Astronomical Twilight 5:22 AM EDT 8:43 PM EDT
Moon 8:24 PM EDT 7:57 AM EDT
Length of Visible Light 13h 18m
Length of Day
12h 25m
Full, 98% of the Moon is Illuminated
Sep 15
Full
Sep 21
Last Quarter
Sep 28
New
Oct 5
First Quarter
Oct 13
Full

Hourly Weather History & Observations

Time (EDT) Temp. Heat Index Dew Point Humidity Pressure Visibility Wind Dir Wind Speed Gust Speed Precip Events Conditions
12:54 AM 72.0 °F - 70.0 °F 93% 30.17 in 9.0 mi Calm Calm - N/A   Scattered Clouds
1:54 AM 72.0 °F - 69.1 °F 91% 30.17 in 9.0 mi Calm Calm - N/A   Overcast
2:54 AM 71.1 °F - 69.1 °F 93% 30.16 in 7.0 mi Calm Calm - N/A   Overcast
3:54 AM 71.1 °F - 69.1 °F 93% 30.15 in 7.0 mi Calm Calm - N/A   Scattered Clouds
4:54 AM 71.1 °F - 69.1 °F 93% 30.15 in 6.0 mi Calm Calm - N/A   Scattered Clouds
5:32 AM 70.0 °F - 68.0 °F 93% 30.15 in 1.5 mi Calm Calm - N/A   Clear
5:44 AM 70.0 °F - 68.0 °F 93% 30.15 in 3.0 mi Calm Calm - N/A   Clear
5:54 AM 70.0 °F - 68.0 °F 93% 30.15 in 7.0 mi Calm Calm - N/A   Clear
6:28 AM 68.0 °F - 66.0 °F 93% 30.15 in 3.0 mi Calm Calm - N/A   Scattered Clouds
6:31 AM 69.1 °F - 66.0 °F 90% 30.15 in 1.8 mi Calm Calm - N/A   Mostly Cloudy
6:43 AM 69.1 °F - 66.9 °F 93% 30.16 in 3.0 mi Calm Calm - N/A   Mostly Cloudy
6:52 AM 68.0 °F - 66.2 °F 94% 30.15 in 2.5 mi Calm Calm - N/A   Overcast
6:54 AM 68.0 °F - 66.9 °F 96% 30.15 in 2.5 mi Calm Calm - N/A   Overcast
7:03 AM 69.1 °F - 66.9 °F 93% 30.16 in 0.8 mi Calm Calm - N/A   Mist
7:14 AM 69.1 °F - 66.9 °F 93% 30.16 in 2.0 mi Calm Calm - N/A   Overcast
7:31 AM 69.1 °F - 66.9 °F 93% 30.16 in 1.8 mi Calm Calm - N/A   Overcast
7:54 AM 71.1 °F - 68.0 °F 90% 30.17 in 8.0 mi Calm Calm - N/A   Overcast
8:14 AM 72.0 °F - 69.1 °F 91% 30.17 in 8.0 mi Calm Calm - N/A   Overcast
8:24 AM 73.0 °F - 70.0 °F 90% 30.17 in 9.0 mi Calm Calm - N/A   Overcast
8:32 AM 73.0 °F - 70.0 °F 90% 30.17 in 10.0 mi Calm Calm - N/A   Overcast
8:54 AM 75.0 °F - 72.0 °F 90% 30.17 in 10.0 mi Calm Calm - N/A   Mostly Cloudy
9:54 AM 78.1 °F - 72.0 °F 81% 30.17 in 10.0 mi South 3.5 mph - N/A   Mostly Cloudy
10:52 AM 82.4 °F 87.2 °F 71.6 °F 70% 30.16 in 10.0 mi Calm Calm - N/A   Mostly Cloudy
10:54 AM 82.9 °F 87.5 °F 71.1 °F 67% 30.16 in 10.0 mi Calm Calm - N/A   Mostly Cloudy
11:37 AM 84.0 °F 89.6 °F 72.0 °F 67% 30.15 in 10.0 mi Calm Calm - N/A   Mostly Cloudy
11:54 AM 84.0 °F 89.0 °F 71.1 °F 65% 30.14 in 10.0 mi Variable 4.6 mph - N/A   Mostly Cloudy
12:54 PM 84.0 °F 88.4 °F 70.0 °F 63% 30.14 in 10.0 mi Calm Calm - N/A   Overcast
1:54 PM 84.9 °F 90.1 °F 71.1 °F 63% 30.12 in 10.0 mi Variable 3.5 mph - N/A   Scattered Clouds
2:54 PM 84.9 °F 90.1 °F 71.1 °F 63% 30.09 in 10.0 mi NNW 3.5 mph - 0.00 in   Partly Cloudy
3:54 PM 87.1 °F 92.0 °F 70.0 °F 57% 30.08 in 10.0 mi Variable 4.6 mph - N/A   Partly Cloudy
4:54 PM 82.9 °F 87.5 °F 71.1 °F 67% 30.08 in 10.0 mi East 4.6 mph - N/A   Overcast
5:54 PM 82.0 °F 86.3 °F 71.1 °F 69% 30.08 in 10.0 mi Variable 4.6 mph - N/A   Partly Cloudy
6:54 PM 80.1 °F 83.2 °F 70.0 °F 71% 30.08 in 10.0 mi Calm Calm - N/A   Mostly Cloudy
7:54 PM 75.0 °F - 71.1 °F 87% 30.09 in 10.0 mi Calm Calm - N/A   Partly Cloudy
8:54 PM 72.0 °F - 69.1 °F 91% 30.10 in 10.0 mi Calm Calm - N/A   Clear
9:54 PM 72.0 °F - 69.1 °F 91% 30.11 in 10.0 mi Calm Calm - N/A   Clear
10:54 PM 70.0 °F - 68.0 °F 93% 30.09 in 9.0 mi Calm Calm - N/A   Clear
11:54 PM 70.0 °F - 66.9 °F 90% 30.09 in 7.0 mi Calm Calm - N/A   Clear